Regional Weather Roundup
Issued by NWS

Home | Current Version | Previous Version | Graphics & Text | Print | Product List | Glossary On
Versions: 1 2 3 4 5 6 7 8 9 10 11 12 13 14 15 16 17 18 19 20 21 22 23 24 25 26 27 28 29 30 31 32 33 34 35 36 37 38 39 40 41 42 43 44 45 46 47 48 49 50
000
ASUS43 KTOP 232308
RWRKS

WEATHER ROUNDUP FOR KANSAS
NATIONAL WEATHER SERVICE GOODLAND KS
500 PM CST MON JAN 23 2017

NOTE:  "FAIR" INDICATES FEW OR NO CLOUDS BELOW 12,000 FEET WITH NO
SIGNIFICANT WEATHER AND/OR OBSTRUCTIONS TO VISIBILITY.

KSZ001>006-013>018-027>032-041>047-240000-
NORTHWEST KANSAS

CITY           SKY/WX    TMP DP  RH WIND       PRES   REMARKS
GOODLAND       CLEAR     55  30  38 NE6       29.54S
HAYS           CLEAR     56  35  45 S10       29.61S
HILL CITY      CLEAR     56  33  42 S8        29.59S
RUSSELL        CLEAR     51  34  52 SE14      29.62S
$$

KSZ061>065-074>080-084>089-240000-
SOUTHWEST KANSAS

CITY           SKY/WX    TMP DP  RH WIND       PRES   REMARKS
DODGE CITY     CLEAR     59  32  36 S13       29.59F
ELKHART          N/A     66  27  23 SW13        N/A
GARDEN CITY    CLEAR     58  35  42 SE8       29.58F
GREAT BEND     CLEAR     54  35  48 S20       29.62F
LIBERAL          N/A     68  28  22 W10       29.59F
PRATT          CLEAR     52  32  46 S15       29.65F
$$

KSZ066>073-081>083-090>101-240000-
SOUTHEAST KANSAS

CITY           SKY/WX    TMP DP  RH WIND       PRES   REMARKS
CHANUTE        CLEAR     50  36  58 SE10      29.80S
COFFEYVILLE    CLEAR     52  37  56 SE8       29.81S
HUTCHINSON     CLEAR     52  33  48 S22       29.69F
MEDICINE LODGE   N/A     55  34  45 S15       29.66F
NEWTON         CLEAR     50  33  52 S14       29.72S
PARSONS        CLEAR     52  37  56 SE5       29.80F
WICHITA INTL   PTCLDY    53  33  46 S14       29.72F
WICHITA JABRA  CLEAR     52  32  46 S13       29.73S
WICHITA MCCONL CLEAR     53  31  42 S14       29.73S
WINFIELD       CLEAR     55  32  41 SE9       29.75S
$$

KSZ007>012-019>026-033>040-048>060-102>105-240000-
NORTHEAST KANSAS

CITY           SKY/WX    TMP DP  RH WIND       PRES   REMARKS
CONCORDIA      CLEAR     50  31  48 S14       29.69S
EMPORIA        CLEAR     52  31  44 SE10      29.75F
LAWRENCE       CLEAR     41  34  76 E8        29.83R HAZE
MANHATTAN      CLEAR     46  36  68 E12       29.74F
MARYSVILLE     CLOUDY    36  34  93 E9        29.76S
OLATHE IND     CLEAR     42  34  73 SE6       29.83R
OLATHE EXE     CLEAR     42  34  73 SE7       29.82S
SALINA         CLEAR     55  30  38 SE20G25   29.71S
TOPEKA BILLARD CLEAR     42  35  76 E9        29.81S
TOPEKA FORBES  CLEAR     41  34  76 E10       29.80S HAZE
$$




USA.gov is the U.S. government's official web portal to all federal, state and local government web resources and services.